Date String (YYYY-MM-DD hh:mm:ss) UTC,Instrument flags,Ambient pressure (hPa),Sample flow (lpm),Bypass flow (lpm),Sample temperature (°C),Ambient temperature (°C),ASC tube jacket temperature (°C),LED temperature (°C),Box temperature (°C),Sample RH (%),Span deviation,Mass concentration (μg/m³),Mass concentration (μg/m³),Mass concentration (μg/m³)
DateTimeUTC,F1_M11,P_M11,Q1_M11,Q2_M11,T1_M11,T2_M11,T3_M11,T4_M11,T5_M11,U1_M11,ZSPAN_M11,X0_M11,X2_M11,X1_M11
2022-01-30 17:00:00,,0825.7,5.02,0.00,23.8,23.1,00.0,32.6,25.6,04.5,0000.0,0001.66,0000.82,0000.74
2022-01-30 17:01:00,,0825.6,4.98,0.00,23.8,23.1,00.0,32.6,25.6,04.4,0000.0,0001.66,0000.82,0000.75
2022-01-30 17:02:00,,0825.6,5.01,0.00,23.9,23.1,00.0,32.6,25.7,04.4,0000.0,0001.62,0000.83,0000.75
2022-01-30 17:03:00,,0825.6,5.00,0.00,23.9,23.1,00.0,32.7,25.7,04.4,0000.0,0001.64,0000.84,0000.76
2022-01-30 17:04:00,,0825.6,5.00,0.00,23.9,23.1,00.0,32.7,25.7,04.9,0000.0,0001.55,0000.86,0000.77
2022-01-30 17:05:00,,0825.6,5.01,0.00,23.9,23.1,00.0,32.7,25.7,04.7,0000.0,0001.26,0000.86,0000.78
2022-01-30 17:06:00,,0825.6,4.99,0.00,23.9,23.1,00.0,32.7,25.8,04.3,0000.0,0001.27,0000.87,0000.78
2022-01-30 17:07:00,,0825.6,5.00,0.00,24.0,23.2,00.0,32.7,25.8,05.3,0000.0,0001.26,0000.87,0000.79
2022-01-30 17:08:00,,0825.6,4.99,0.00,24.0,23.2,00.0,32.7,25.9,05.7,0000.0,0001.31,0000.90,0000.79
2022-01-30 17:09:00,,0825.6,4.99,0.00,24.0,23.2,00.0,32.8,25.9,05.9,0000.0,0001.34,0000.92,0000.79
2022-01-30 17:10:00,,0825.6,5.01,0.00,24.0,23.2,00.0,32.8,25.9,05.8,0000.0,0001.30,0000.91,0000.79
2022-01-30 17:11:00,,0825.6,4.99,0.00,24.0,23.3,00.0,32.8,25.9,05.9,0000.0,0001.30,0000.91,0000.80
2022-01-30 17:12:00,,0825.6,5.02,0.00,24.0,23.3,00.0,32.8,25.9,06.1,0000.0,0001.28,0000.91,0000.81
2022-01-30 17:13:00,,0825.6,4.99,0.00,24.1,23.3,00.0,32.8,25.9,05.7,0000.0,0001.28,0000.92,0000.80
2022-01-30 17:14:00,,0825.6,5.01,0.00,24.1,23.3,00.0,32.9,26.0,05.4,0000.0,0001.31,0000.92,0000.79
2022-01-30 17:15:00,,0825.6,4.99,0.00,24.1,23.3,00.0,32.9,26.0,05.3,0000.0,0001.36,0000.93,0000.79
2022-01-30 17:16:00,,0825.6,5.01,0.00,24.1,23.4,00.0,32.9,26.0,05.2,0000.0,0001.23,0000.93,0000.78
2022-01-30 17:17:00,,0825.6,4.99,0.00,24.1,23.4,00.0,32.9,26.0,05.2,0000.0,0001.20,0000.92,0000.78
2022-01-30 17:18:00,,0825.6,4.98,0.00,24.1,23.4,00.0,32.9,26.0,05.2,0000.0,0001.20,0000.92,0000.78
2022-01-30 17:19:00,,0825.6,5.02,0.00,24.2,23.4,00.0,32.9,26.0,05.2,0000.0,0001.24,0000.92,0000.78
2022-01-30 17:20:00,,0825.6,4.98,0.00,24.2,23.4,00.0,33.0,26.1,05.1,0000.0,0001.27,0000.91,0000.78
2022-01-30 17:21:00,,0825.6,5.01,0.00,24.2,23.4,00.0,33.0,26.1,05.2,0000.0,0001.27,0000.91,0000.79
2022-01-30 17:22:00,,0825.6,4.99,0.00,24.2,23.4,00.0,33.0,26.1,04.9,0000.0,0001.28,0000.91,0000.79
2022-01-30 17:23:00,,0825.5,5.01,0.00,24.2,23.4,00.0,33.0,26.1,04.9,0000.0,0002.06,0000.92,0000.79
2022-01-30 17:24:00,,0825.5,4.99,0.00,24.2,23.5,00.0,33.0,26.1,04.8,0000.0,0002.39,0000.92,0000.79
2022-01-30 17:25:00,,0825.5,5.01,0.00,24.2,23.5,00.0,33.0,26.1,05.0,0000.0,0002.38,0000.91,0000.79
2022-01-30 17:26:00,,0825.5,5.00,0.00,24.3,23.5,00.0,33.1,26.1,05.4,0000.0,0002.43,0000.91,0000.79
2022-01-30 17:27:00,,0825.5,4.99,0.00,24.3,23.5,00.0,33.1,26.2,05.1,0000.0,0002.45,0000.92,0000.80
2022-01-30 17:28:00,,0825.5,5.00,0.00,24.3,23.5,00.0,33.1,26.2,05.4,0000.0,0002.57,0000.94,0000.81
2022-01-30 17:29:00,,0825.5,5.01,0.00,24.3,23.6,00.0,33.1,26.2,04.8,0000.0,0002.61,0000.96,0000.82
2022-01-30 17:30:00,,0825.4,5.00,0.00,24.4,23.6,00.0,33.1,26.3,04.8,0000.0,0002.53,0000.95,0000.82
2022-01-30 17:31:00,,0825.4,5.00,0.00,24.4,23.6,00.0,33.2,26.3,04.3,0000.0,0002.51,0000.96,0000.83
2022-01-30 17:32:00,,0825.4,5.00,0.00,24.4,23.6,00.0,33.2,26.3,04.8,0000.0,0002.52,0000.97,0000.83
2022-01-30 17:33:00,,0825.4,5.00,0.00,24.4,23.7,00.0,33.2,26.3,04.5,0000.0,0002.64,0000.99,0000.84
2022-01-30 17:34:00,,0825.4,5.00,0.00,24.4,23.7,00.0,33.2,26.3,04.8,0000.0,0002.03,0000.99,0000.84
2022-01-30 17:35:00,,0825.4,5.00,0.00,24.4,23.7,00.0,33.2,26.3,04.2,0000.0,0001.58,0000.98,0000.84
2022-01-30 17:36:00,,0825.4,5.01,0.00,24.5,23.7,00.0,33.2,26.3,04.5,0000.0,0001.60,0000.99,0000.84
2022-01-30 17:37:00,,0825.4,4.99,0.00,24.5,23.7,00.0,33.3,26.4,04.9,0000.0,0001.44,0000.96,0000.84
2022-01-30 17:38:00,,0825.4,5.00,0.00,24.5,23.8,00.0,33.3,26.4,04.9,0000.0,0001.41,0000.95,0000.85
2022-01-30 17:39:00,,0825.3,5.00,0.00,24.5,23.8,00.0,33.3,26.4,05.1,0000.0,0001.30,0000.94,0000.84
2022-01-30 17:40:00,,0825.3,5.01,0.00,24.5,23.8,00.0,33.3,26.4,04.9,0000.0,0001.25,0000.91,0000.83
2022-01-30 17:41:00,,0825.3,4.99,0.00,24.6,23.8,00.0,33.3,26.5,05.2,0000.0,0001.35,0000.92,0000.83
2022-01-30 17:42:00,,0825.3,5.02,0.00,24.6,23.9,00.0,33.4,26.5,04.4,0000.0,0001.30,0000.90,0000.81
2022-01-30 17:43:00,,0825.3,4.98,0.00,24.6,23.9,00.0,33.4,26.5,04.0,0000.0,0001.26,0000.87,0000.79
2022-01-30 17:44:00,,0825.3,5.00,0.00,24.6,23.9,00.0,33.4,26.6,04.4,0000.0,0001.11,0000.83,0000.76
2022-01-30 17:45:00,,0825.3,4.99,0.00,24.7,23.9,00.0,33.4,26.6,04.6,0000.0,0001.07,0000.80,0000.74
2022-01-30 17:46:00,,0825.3,4.98,0.00,24.7,23.9,00.0,33.4,26.6,04.7,0000.0,0001.10,0000.80,0000.74
2022-01-30 17:47:00,,0825.3,5.02,0.00,24.7,24.0,00.0,33.5,26.6,04.1,0000.0,0001.11,0000.79,0000.72
2022-01-30 17:48:00,,0825.3,4.99,0.00,24.7,24.0,00.0,33.5,26.6,04.2,0000.0,0001.11,0000.79,0000.71
2022-01-30 17:49:00,,0825.3,5.00,0.00,24.7,24.0,00.0,33.5,26.6,04.1,0000.0,0001.09,0000.77,0000.69
2022-01-30 17:50:00,,0825.3,4.98,0.00,24.7,24.0,00.0,33.5,26.7,04.1,0000.0,0001.05,0000.74,0000.67
2022-01-30 17:51:00,,0825.2,5.02,0.00,24.8,24.0,00.0,33.5,26.7,04.1,0000.0,0001.05,0000.73,0000.65
2022-01-30 17:52:00,,0825.2,4.98,0.00,24.8,24.0,00.0,33.6,26.7,03.9,0000.0,0000.99,0000.71,0000.62
2022-01-30 17:53:00,,0825.2,5.02,0.00,24.8,24.1,00.0,33.6,26.7,04.0,0000.0,0000.92,0000.68,0000.60
2022-01-30 17:54:00,,0825.2,4.98,0.00,24.8,24.1,00.0,33.6,26.7,04.2,0000.0,0000.91,0000.67,0000.58
2022-01-30 17:55:00,,0825.2,5.01,0.00,24.9,24.1,00.0,33.6,26.8,04.4,0000.0,0000.97,0000.69,0000.58
2022-01-30 17:56:00,,0825.2,4.98,0.00,24.9,24.1,00.0,33.6,26.8,04.0,0000.0,0000.98,0000.69,0000.58
2022-01-30 17:57:00,,0825.2,5.01,0.00,24.9,24.2,00.0,33.7,26.8,04.5,0000.0,0000.94,0000.67,0000.56
2022-01-30 17:58:00,,0825.2,4.99,0.00,24.9,24.2,00.0,33.7,26.8,04.3,0000.0,0000.86,0000.65,0000.56
2022-01-30 17:59:00,,0825.2,5.02,0.00,25.0,24.2,00.0,33.7,26.9,04.3,0000.0,0000.85,0000.64,0000.55
